Location: ??????????
(44.2167°N, 135.5333°E)
Time: 14:16:55
(UTC+00:00)

DMSP B5D2-2 - Pass Details

Date: 15 June 2025
Orbit: 785 x 801 km, 98.4° (Epoch: 15 July)

Event Time Altitude Azimuth Distance (km) Brightness Sun altitude
Rises 18:01:06 0° 165° (SSE) 3,294 7.0 -10.6°
Reaches altitude 10° 18:03:25 10° 165° (SSE) 2,370 6.2 -10.3°
Maximum altitude 18:08:40 89° 245° (WSW) 808 4.1 -9.7°
Drops below altitude 10° 18:13:58 10° 346° (NNW) 2,387 7.0 -9.0°
Sets 18:16:19 0° 347° (NNW) 3,321 7.8 -8.7°
